Regional Weather Roundup
Issued by NWS

Home | Current Version | Previous Version | Graphics & Text | Print | Product List | Glossary On
Versions: 1 2 3 4 5 6 7 8 9 10 11 12 13 14 15 16 17 18 19 20 21 22 23 24 25 26 27 28 29 30 31 32 33 34 35 36 37 38 39 40 41 42 43 44 45 46 47 48 49 50
000
ASUS43 KLMK 230910
RWRKY
KENTUCKY REGIONAL WEATHER ROUNDUP
NATIONAL WEATHER SERVICE LOUISVILLE KY
500 AM EDT SAT MAY 23 2015

NOTE "FAIR" INDICATES FEW OR NO CLOUDS BELOW 12,000 FEET
WITH NO SIGNIFICANT WEATHER AND/OR OBSTRUCTIONS TO VISIBILITY.

KYZ001>023-026-027-061>063-070>075-231000-
WESTERN AND SOUTH CENTRAL KENTUCKY

CITY           SKY/WX    TMP DP  RH WIND       PRES   REMARKS
PADUCAH        MOCLDY    58  55  90 CALM      30.28R
HENDERSON      MOCLDY    57  54  88 CALM      30.28R
OWENSBORO      CLOUDY    59  55  86 SE5       30.30R
HOPKINSVILLE   CLOUDY    59  51  74 SE6       30.28S
BOWLING GREEN  MOCLDY    54  50  86 CALM      30.30R
GLASGOW        MOCLDY    50  50 100 CALM      30.31R
$$

KYZ024-025-028>034-038-045-046-053-231000-
NORTH CENTRAL KENTUCKY

CITY           SKY/WX    TMP DP  RH WIND       PRES   REMARKS
LOUISVILLE/SDF CLOUDY    58  51  78 SE5       30.30R
LOUISVILLE/LOU MOCLDY    56  50  80 CALM      30.31R
FORT KNOX      MOCLDY    52  50  93 CALM      30.29R
$$

KYZ035>037-039>044-047>052-055>060-089>105-231000-
NORTHEAST KENTUCKY

CITY           SKY/WX    TMP DP  RH WIND       PRES   REMARKS
LEXINGTON      PTCLDY    50  45  83 SE5       30.32R
COVINGTON      MOCLDY    50  46  86 CALM      30.32R
FRANKFORT      PTCLDY    50  46  86 CALM      30.31R
$$

KYZ054-064>069-076>088-106>120-231000-
SOUTHEAST KENTUCKY

CITY           SKY/WX    TMP DP  RH WIND       PRES   REMARKS
JACKSON        CLEAR     53  46  77 CALM      30.34R
LONDON         CLEAR     48  43  82 CALM      30.33R
SOMERSET       PTCLDY    46  46 100 CALM      30.33S
MIDDLESBORO    CLEAR     45  45  99 CALM      30.36R
MONTICELLO     MOSUNNY   50  49  96 CALM      30.35R
$$



USA.gov is the U.S. government's official web portal to all federal, state and local government web resources and services.